Weather History for KBML - February, 2014

Change the Weather History Date:

Thursday, February 20, 2014

  Actual Average Record
Temperature  
Mean Temperature 37 °F -  
Max Temperature 42 °F 27 °F 42 °F (2001)
Min Temperature 32 °F 2 °F -9 °F (2015)
Degree Days  
Heating Degree Days 28    
Moisture  
Dew Point 26 °F    
Average Humidity 73    
Maximum Humidity 96    
Minimum Humidity 41    
Precipitation  
Precipitation 0.02 in - - ()
Sea Level Pressure  
Sea Level Pressure 30.06 in    
Wind  
Wind Speed 5 mph (WNW)    
Max Wind Speed 9 mph    
Max Gust Speed 21 mph    
Visibility 7 miles    
Events Snow    
Averages and records for this station are not official NWS values.
T = Trace of Precipitation, MM = Missing Value Source: NWS Daily Summary

Daily Weather History Graph

Daily Weather History Graph

Search for Another Location

Airport or City:

Trip Planner

Search our weather history database for the weather conditions in past years. The results will help you decide how hot, cold, wet, or windy it might be!

Date:

Astronomy

Feb. 20, 2014 Rise Set
Actual Time 6:37 AM EST 5:20 PM EST
Civil Twilight 6:07 AM EST 5:50 PM EST
Nautical Twilight 5:33 AM EST 6:23 PM EST
Astronomical Twilight 4:59 AM EST 6:57 PM EST
Moon 11:27 PM EST (2/20) 9:03 AM EST (2/20)
Length of Visible Light 11h 42m
Length of Day
10h 43m
Waning Gibbous, 71% of the Moon is Illuminated
Feb 20
Waning Gibbous
Feb 22
Last Quarter
Mar 1
New
Mar 8
First Quarter
Mar 16
Full

Hourly Weather History & Observations

Time (EST) Temp. Windchill Dew Point Humidity Pressure Visibility Wind Dir Wind Speed Gust Speed Precip Events Conditions
12:52 AM 32.0 °F 26.4 °F 27.0 °F 82% 29.83 in 4.0 mi North 5.8 mph - 0.00 in Snow Light Snow
1:52 AM 33.1 °F 25.5 °F 26.1 °F 75% 29.88 in 10.0 mi WNW 9.2 mph 18.4 mph 0.00 in   Overcast
2:04 AM 33.1 °F 26.9 °F 26.1 °F 75% 29.84 in 10.0 mi Variable 6.9 mph - N/A   Overcast
2:52 AM 33.1 °F 28.7 °F 25.0 °F 72% 29.90 in 10.0 mi Variable 4.6 mph - N/A   Overcast
3:52 AM 33.1 °F 26.1 °F 25.0 °F 72% 29.92 in 10.0 mi West 8.1 mph 17.3 mph N/A   Mostly Cloudy
4:52 AM 33.1 °F 26.1 °F 25.0 °F 72% 29.94 in 10.0 mi NW 8.1 mph 18.4 mph N/A   Overcast
5:52 AM 34.0 °F 28.8 °F 26.1 °F 73% 29.96 in 10.0 mi Variable 5.8 mph - N/A   Overcast
6:52 AM 32.0 °F 24.2 °F 23.0 °F 69% 30.00 in 10.0 mi WNW 9.2 mph 18.4 mph N/A   Clear
7:52 AM 33.1 °F 26.1 °F 21.0 °F 61% 30.04 in 10.0 mi WNW 8.1 mph 20.7 mph N/A   Clear
8:52 AM 34.0 °F 27.2 °F 19.9 °F 56% 30.05 in 10.0 mi WNW 8.1 mph 19.6 mph N/A   Clear
9:52 AM 37.0 °F 31.0 °F 21.0 °F 52% 30.07 in 10.0 mi WNW 8.1 mph - N/A   Clear
10:52 AM 39.0 °F 34.0 °F 21.9 °F 50% 30.08 in 10.0 mi NW 6.9 mph - N/A   Partly Cloudy
11:52 AM 41.0 °F 35.8 °F 21.0 °F 45% 30.08 in 10.0 mi West 8.1 mph - N/A   Mostly Cloudy
12:52 PM 42.1 °F - 21.0 °F 43% 30.07 in 10.0 mi North - - N/A   Scattered Clouds
1:52 PM 42.1 °F 37.7 °F 19.9 °F 41% 30.07 in 10.0 mi Variable 6.9 mph 19.6 mph N/A   Clear
2:52 PM 41.0 °F 35.8 °F 19.9 °F 43% 30.09 in 10.0 mi WNW 8.1 mph - N/A   Clear
3:52 PM 39.9 °F 35.1 °F 19.0 °F 43% 30.12 in 10.0 mi Variable 6.9 mph - N/A   Clear
4:52 PM 39.0 °F 34.8 °F 19.9 °F 46% 30.12 in 10.0 mi West 5.8 mph - N/A   Partly Cloudy
5:52 PM 37.0 °F - 21.9 °F 54% 30.13 in 10.0 mi Calm Calm - N/A   Mostly Cloudy
6:52 PM 34.0 °F - 25.0 °F 70% 30.12 in 10.0 mi Calm Calm - N/A   Overcast
7:52 PM 33.1 °F - 26.1 °F 75% 30.14 in 10.0 mi Calm Calm - N/A   Overcast
8:52 PM 35.1 °F 27.9 °F 30.0 °F 82% 30.16 in 2.5 mi SW 9.2 mph - 0.00 in Snow Light Snow
9:03 PM 34.0 °F 31.0 °F 30.9 °F 89% 30.12 in 1.8 mi SW 3.5 mph - 0.00 in Snow Light Snow
9:19 PM 34.0 °F - 32.0 °F 92% 30.11 in 2.0 mi Calm Calm - 0.01 in Snow Light Snow
9:29 PM 34.0 °F - 32.0 °F 92% 30.12 in 1.8 mi Calm Calm - 0.01 in Snow Light Snow
9:41 PM 34.0 °F - 32.0 °F 92% 30.12 in 2.0 mi Calm Calm - 0.01 in Snow Light Snow
9:52 PM 34.0 °F - 32.0 °F 92% 30.16 in 2.0 mi Calm Calm - 0.01 in Snow Light Snow
10:08 PM 34.0 °F - 32.0 °F 92% 30.11 in 1.8 mi Calm Calm - 0.01 in Snow Light Snow
10:17 PM 33.1 °F - 30.9 °F 92% 30.11 in 1.8 mi Calm Calm - 0.01 in Snow Light Snow
10:25 PM 33.1 °F - 32.0 °F 96% 30.10 in 2.5 mi Calm Calm - 0.01 in Snow Light Snow
10:32 PM 33.1 °F 30.0 °F 32.0 °F 96% 30.10 in 5.0 mi ENE 3.5 mph - 0.01 in Snow Light Snow
10:49 PM 33.8 °F 30.8 °F 32.0 °F 93% 30.10 in 7.0 mi ESE 3.5 mph - 0.01 in Snow Light Snow
10:52 PM 34.0 °F - 32.0 °F 92% 30.14 in 6.0 mi Calm Calm - 0.01 in Snow Light Snow
11:52 PM 33.1 °F - 32.0 °F 96% 30.12 in 4.0 mi Calm Calm - 0.00 in Snow Light Snow